Weather in Byblos

Lebanon     34°07′43″N   35°39′34″E
temp.,
°C
wind,
m/s
gust,
m/s
humid.,
%
clouds,
%
prec.,
mm/h
press.,
hPa
HPBL,
m
20 september, mon
mon2000:00+22ssw11600 0.0 101511
03:00+21s00660 0.0 101411
06:00+21ese11520 0.0 101411
09:00+27nw11410 0.0 1015304
12:00+29wnw32430 0.0 1015676
15:00+29nw22390 0.0 1014684
18:00+27n22480 0.0 1013219
21:00+25ne22450 0.0 101420
21 september, tue
tue2100:00+24ene22400 0.0 101412
03:00+23ene22360 0.0 101312
06:00+22ese21340 0.0 101312
09:00+29wnw11230 0.0 1014368
12:00+30nw42350 0.0 1013790
15:00+29wnw32430 0.0 1012689
18:00+27w11480 0.0 1011272
21:00+24sw11620 0.0 101211
22 september, wed
wed2200:00+23sw22610 0.0 101120
03:00+22s33710 0.0 101139
06:00+22s22560 0.0 100920
09:00+26sw44560 0.0 1010522
12:00+28sw88550 0.0 1009768
15:00+27sw89630 0.0 1008786
18:00+25sw69710 0.0 1007523
21:00+23ssw69750 0.0 1006444
23 september, thu
thu2300:00+23ssw712750 0.0 1006510
03:00+23ssw610630 0.0 1006332
06:00+22ssw811610 0.0 1005507
09:00+25sw1012460 0.0 10061087
12:00+27sw1314510 0.0 10061305
15:00+26sw1415570 0.0 10051519
18:00+24ssw1113610 0.0 10061372
21:00+22ssw912661 0.1 10071065
24 september, fri
fri2400:00+21ssw9116820 0.4 1007906
03:00+21ssw9127016 1.4 1007822
06:00+20ssw9126848 0.8 1007795
09:00+21sw9115899 1.2 10091679
12:00+24sw884253 0.2 10101924
15:00+22wsw665837 0.9 10101318
18:00+21w22632 0.5 1012729
21:00+19s11710 0.6 101312